Theta_e
310 309 310 309 308 309 308 310 311 309 309 311 310 309 309 312 310 310 314 315 316 316 318 316 314 314 314 313 313 313 312 312 312 312 312 312 316 316 324 322 324 324 325 324
308 309 309 308 307 310 310 311 311 309 309 310 309 310 310 309 312 313 314 315 316 317 318 318 317 315 314 314 313 313 312 312 311 312 312 313 315 319 321 322 323 326 324 325
309 310 308 309 308 309 309 310 310 311 310 308 308 309 309 308 309 312 314 315 315 316 317 317 317 317 315 314 314 314 313 312 311 311 312 314 315 321 320 322 322 321 321 321
309 309 310 309 310 309 310 307 309 311 312 312 309 311 310 309 309 308 313 314 316 317 316 317 317 316 316 316 315 314 312 311 311 310 311 313 313 318 319 319 321 321 320 321
310 309 310 310 310 308 310 307 308 310 310 311 310 312 311 309 310 310 311 314 316 316 316 316 316 316 315 315 314 314 312 311 310 310 311 312 313 319 318 319 320 319 319 318
309 309 309 310 309 309 307 309 308 307 309 312 310 311 311 309 311 311 310 315 315 315 315 315 315 315 315 314 313 312 312 311 310 309 310 312 312 319 319 318 319 319 318 318
310 310 309 310 310 309 310 311 312 311 312 315 308 310 313 310 309 309 311 315 315 315 315 316 317 317 317 316 315 313 311 310 309 309 310 312 314 319 317 318 318 317 317 317
311 310 309 308 310 311 309 311 311 310 309 309 308 312 312 308 310 311 312 314 314 313 314 315 316 317 317 316 315 314 312 309 308 308 310 312 315 317 316 316 317 316 316 316
308 309 308 307 309 310 310 312 310 310 296 307 308 307 307 307 308 309 312 313 313 314 316 317 317 317 317 316 315 313 312 309 308 308 310 312 313 315 315 316 316 316 316 315
309 310 309 309 310 309 309 309 312 309 310 308 309 308 311 312 312 309 308 311 314 315 316 317 317 317 316 315 314 313 311 309 308 307 309 311 313 315 315 316 315 315 315 315
309 310 309 309 309 309 311 311 310 310 309 310 308 311 306 309 309 309 308 313 315 316 317 317 317 317 317 316 315 313 311 309 307 307 308 310 311 315 315 315 314 314 314 314
309 311 311 309 307 305 307 309 310 311 309 307 308 314 309 307 309 310 311 312 314 316 315 317 316 317 316 316 315 314 311 310 308 307 308 310 312 314 315 313 313 313 313 312
310 313 308 313 310 307 308 307 308 307 305 308 312 315 306 306 307 310 310 313 313 315 316 315 315 316 316 316 316 315 313 311 308 307 307 309 311 313 313 312 312 312 312 310
312 313 313 317 313 309 309 307 309 312 313 314 311 313 312 311 309 309 312 314 314 315 314 315 315 316 316 317 316 315 314 312 310 308 307 309 311 311 311 310 311 311 311 309
314 315 314 313 312 310 310 309 310 311 313 314 314 313 313 312 311 312 315 314 314 315 315 315 314 316 316 316 315 314 314 313 311 308 307 308 310 312 311 309 309 309 309 308
312 313 314 315 312 313 311 309 309 310 312 312 313 313 313 313 311 310 313 314 314 315 316 316 316 316 316 315 315 315 314 313 311 309 308 307 309 311 311 309 308 308 308 305
312 312 313 317 314 313 314 313 312 311 310 311 312 312 312 311 311 310 312 313 314 314 315 315 315 315 315 315 315 315 314 312 310 308 307 307 308 309 310 309 308 308 308 305
309 308 311 316 313 317 315 312 313 314 313 311 311 312 312 313 313 313 313 312 313 313 314 314 314 314 314 313 313 313 312 311 309 308 307 306 306 307 307 308 308 308 306 303
307 309 312 316 317 314 312 310 309 312 314 313 313 312 312 312 311 312 312 312 313 313 313 312 312 313 313 314 313 312 311 309 307 306 306 305 304 304 305 306 307 306 303 298
306 309 310 311 314 316 312 309 310 309 315 310 310 312 311 310 310 312 312 313 313 313 313 313 313 313 313 313 313 312 310 308 307 305 304 303 301 301 302 303 304 302 298 294
308 310 313 315 315 314 308 301 309 316 312 305 307 310 308 308 312 313 311 312 313 313 312 311 312 312 312 311 310 310 309 306 304 302 301 299 298 298 299 300 300 299 295 292
306 307 311 311 315 316 305 305 311 310 304 308 309 311 310 310 310 311 310 309 309 310 310 310 309 309 309 308 306 305 304 302 300 298 297 296 296 296 296 296 296 295 292 292
306 308 311 311 312 307 308 307 311 311 312 312 308 309 308 307 309 309 309 308 308 308 309 309 307 306 305 304 302 300 299 298 298 297 295 295 294 294 294 294 293 292 290 291
302 303 306 306 301 303 305 307 308 309 309 307 306 307 309 310 308 308 307 307 306 305 305 305 304 303 301 300 299 298 298 298 297 296 295 294 293 293 292 292 292 291 292 295
298 299 302 301 302 303 305 306 306 308 310 308 307 307 308 307 307 306 305 304 305 303 302 301 300 300 299 298 298 299 298 301 303 302 300 299 297 295 294 293 294 294 293 293
299 300 302 302 302 303 303 303 304 303 304 306 305 303 302 301 301 302 302 302 304 303 301 300 300 299 299 300 302 302 301 301 301 302 301 300 299 297 296 295 295 293 291 291
Wind_Speed
2 4 6 12 6 3 5 3 3 4 2 3 7 11 12 26 20 26 30 31 33 33 29 31 33 34 34 35 35 34 34 32 31 30 29 30 33 29 29 26 26 26 26 25
4 6 9 7 5 4 3 3 5 5 3 4 7 15 14 13 23 32 37 41 41 40 38 37 34 36 39 38 37 36 36 35 33 31 30 30 31 30 28 27 27 29 32 31
7 5 6 7 5 6 4 6 5 7 3 3 6 8 8 7 22 32 40 45 42 43 43 41 39 36 37 40 39 39 37 36 35 34 32 31 31 30 32 34 32 34 29 31
6 5 6 4 4 7 6 8 5 3 2 4 1 6 8 7 10 8 29 33 39 42 45 43 42 39 39 40 40 40 39 38 37 36 34 35 36 37 37 34 32 31 31 29
8 10 7 6 7 8 6 6 6 3 3 3 3 3 8 2 8 11 23 37 38 37 35 34 33 34 36 38 40 41 41 41 40 38 36 35 35 35 31 32 34 34 33 31
3 1 6 8 3 4 9 6 6 4 2 4 9 7 6 6 7 6 9 24 27 24 19 18 18 21 25 28 32 38 43 43 43 39 38 37 37 38 36 35 36 35 33 31
2 5 2 4 6 4 2 6 1 2 0 9 3 5 18 6 8 9 12 28 23 17 13 11 10 14 18 21 25 32 39 45 44 42 40 39 37 38 34 34 35 34 35 34
8 7 11 7 9 9 9 8 6 8 5 4 3 8 8 10 16 24 33 35 30 25 18 17 14 11 16 18 21 26 33 42 45 43 41 38 37 38 36 35 33 34 34 33
6 6 2 3 2 10 6 8 5 1 2 2 6 10 11 13 14 14 27 24 26 20 15 14 12 11 12 16 19 22 27 35 42 43 41 39 38 39 39 37 36 35 34 32
6 4 2 1 2 1 6 5 3 1 4 4 6 6 11 5 8 11 11 23 27 20 15 13 10 8 9 11 15 19 24 29 36 41 41 40 39 39 38 38 37 36 35 36
5 2 2 3 7 9 3 4 2 4 4 5 2 7 8 11 9 9 9 8 5 6 10 10 9 6 7 8 14 16 21 27 35 40 41 40 38 39 38 37 37 37 36 40
8 3 8 11 3 4 2 6 12 5 6 3 2 14 3 7 6 8 14 5 3 6 8 11 10 7 8 6 12 15 19 24 30 37 39 38 37 39 40 38 38 38 38 40
8 4 1 7 1 2 6 6 5 4 3 8 7 13 2 4 7 5 10 5 7 6 9 11 9 6 8 10 15 16 18 22 28 35 38 39 39 40 41 39 39 39 40 41
16 5 8 13 7 5 6 7 15 16 7 22 10 29 21 4 6 11 15 12 11 13 16 15 14 12 18 19 19 20 20 23 27 33 39 41 42 41 42 40 39 39 40 41
5 10 13 19 8 3 7 8 14 17 24 14 30 22 33 15 16 24 35 34 38 40 34 32 27 28 29 27 25 24 24 25 28 34 39 42 42 41 43 41 40 40 41 42
4 4 11 17 18 18 10 8 10 22 24 21 32 28 32 31 20 20 31 37 41 45 43 40 40 38 38 33 30 28 30 30 32 35 39 42 43 44 44 43 41 42 43 44
4 3 5 22 18 10 10 25 27 17 14 23 18 30 21 18 17 16 27 35 41 43 45 48 47 41 40 38 37 37 35 34 35 37 38 42 44 46 46 44 44 44 46 46
6 5 5 10 3 13 12 9 24 28 28 22 22 27 27 27 25 21 38 35 40 42 40 41 45 46 40 35 33 33 36 36 36 38 39 41 44 46 46 46 47 47 47 48
16 10 4 4 8 9 6 8 8 12 24 21 24 30 37 38 20 36 40 39 43 42 40 36 31 28 27 26 28 30 33 35 35 36 38 39 42 45 46 46 46 45 45 48
20 22 16 16 19 12 5 11 16 6 13 10 21 25 25 9 6 17 9 12 13 12 12 16 18 19 20 21 24 26 26 28 31 32 33 35 38 41 41 41 42 42 42 44
4 6 18 17 15 8 7 6 7 10 6 2 12 22 8 7 15 20 13 11 23 28 27 25 25 27 25 22 20 21 21 23 23 24 25 26 29 32 34 36 38 39 40 39
9 5 6 9 15 12 7 5 10 5 6 7 9 13 17 18 15 17 15 11 10 13 15 15 13 13 13 13 12 12 13 13 14 15 16 17 20 25 29 31 32 33 31 31
8 6 3 6 1 6 6 10 8 13 19 24 23 19 16 10 10 11 13 12 11 12 13 13 11 9 8 7 6 6 8 9 11 11 12 13 15 19 23 25 28 28 28 30
5 5 3 4 5 7 24 24 26 25 28 25 15 12 14 14 11 9 9 11 10 9 9 9 6 4 5 8 10 9 11 12 11 12 12 12 12 15 17 19 21 26 30 27
3 4 4 7 10 18 27 22 21 21 25 30 21 18 18 18 14 11 10 11 8 4 3 5 5 10 15 17 16 14 12 13 13 11 12 12 14 17 20 23 24 26 24 24
8 7 4 7 8 6 15 11 12 16 19 22 25 19 15 13 10 7 7 8 7 5 7 8 10 11 15 13 13 13 11 10 8 11 12 12 13 15 17 19 22 24 24 25
Wind_Direction
69 95 197 212 182 136 139 166 209 244 240 199 236 260 262 268 271 263 261 261 259 256 257 252 243 240 238 238 239 239 239 238 237 235 232 223 221 221 216 217 219 225 223 225
47 215 226 121 159 144 153 158 255 279 219 183 277 269 266 243 255 254 258 262 258 258 257 253 248 239 239 240 240 239 240 239 240 239 236 227 224 221 216 217 217 213 216 214
173 212 127 148 156 161 201 179 224 225 344 250 332 280 263 269 248 257 258 259 260 256 255 253 250 245 241 240 241 240 240 241 240 237 232 222 220 217 214 214 218 222 225 225
223 208 161 172 189 153 230 206 174 170 62 252 80 286 283 256 251 247 257 256 256 256 256 256 254 250 246 247 244 242 240 239 238 236 231 225 228 219 217 218 216 219 220 219
234 171 175 184 197 163 224 128 155 131 166 351 191 269 259 30 278 251 250 254 258 261 266 268 266 263 258 251 248 243 239 238 237 234 231 225 225 222 226 218 216 219 220 226
236 254 165 193 120 154 148 80 55 52 86 280 182 181 224 188 218 262 252 262 265 270 274 277 272 264 251 245 243 242 239 237 236 232 230 225 225 218 218 220 217 218 221 219
134 208 192 158 91 54 129 113 296 328 30 237 345 193 257 280 243 230 251 274 276 276 271 262 264 265 256 245 241 238 236 235 233 231 229 226 221 216 224 221 222 221 219 219
189 259 166 192 189 169 197 167 172 204 195 251 54 235 253 238 272 257 257 263 269 272 274 279 271 255 251 249 247 244 238 232 230 229 228 225 220 216 220 225 224 227 226 226
176 266 225 167 155 156 193 209 193 116 92 25 225 277 280 257 266 262 256 256 256 264 269 264 258 250 247 252 256 254 245 235 231 229 227 223 220 218 218 220 223 225 220 222
217 269 195 184 137 329 177 168 84 351 190 236 265 267 238 285 251 253 260 263 270 267 253 236 231 244 257 262 260 254 248 241 234 228 228 226 222 219 220 222 223 224 223 221
163 161 222 151 210 169 149 207 189 147 169 191 253 259 216 228 250 271 271 288 279 217 198 203 219 221 238 266 271 261 250 240 230 228 230 228 224 220 220 223 227 226 225 222
208 160 249 226 242 207 263 219 183 165 220 245 183 265 183 233 251 256 274 241 254 217 206 201 212 212 231 262 274 267 255 245 234 229 231 231 226 221 221 225 228 226 224 221
178 175 313 313 323 328 212 193 187 110 75 214 200 258 12 326 327 294 287 264 256 247 225 223 221 242 297 285 269 268 260 250 237 228 228 230 228 221 222 226 228 227 222 220
170 151 196 227 208 136 185 198 204 198 204 241 223 257 255 302 324 315 304 281 297 286 268 257 254 284 302 290 267 261 259 252 241 229 228 230 230 224 222 224 227 227 224 221
222 202 215 243 250 236 204 183 200 210 229 224 252 244 261 254 244 253 266 278 284 284 277 275 282 288 288 282 266 260 257 251 246 234 230 230 231 227 223 224 226 228 227 222
219 254 202 246 242 228 238 232 214 209 225 234 244 248 254 255 253 239 246 255 267 274 273 275 279 281 284 279 271 264 262 253 245 238 234 231 230 227 227 228 225 229 227 221
236 187 206 243 244 225 236 229 229 228 220 215 232 240 257 258 249 251 258 257 257 262 268 274 278 280 283 282 279 271 263 255 248 242 236 233 231 229 228 227 228 228 227 221
263 263 216 249 155 226 235 229 226 231 238 227 244 256 259 257 266 269 264 264 270 272 273 273 278 282 280 278 272 268 263 258 251 244 238 234 233 231 230 227 228 229 226 221
219 231 254 248 233 276 306 236 180 185 246 234 232 248 255 262 273 271 270 273 276 279 281 282 281 278 275 271 266 264 261 258 251 243 239 236 233 231 229 228 227 227 223 217
221 222 235 251 253 257 251 252 198 127 244 224 210 241 250 225 224 263 268 274 278 284 282 280 278 272 273 278 268 261 258 253 250 246 241 237 234 232 230 229 227 226 223 218
178 219 231 235 243 239 242 236 154 181 232 161 214 234 220 194 227 253 258 254 276 280 282 282 278 277 276 268 259 254 250 247 244 242 243 241 237 233 230 228 225 224 220 216
243 207 214 236 242 255 184 120 189 207 182 197 226 234 231 242 227 237 259 272 263 269 282 291 286 279 275 262 250 246 241 232 231 231 226 226 227 225 223 223 223 221 216 213
235 212 239 224 186 310 300 299 289 312 289 268 250 246 239 241 260 274 283 288 285 275 273 276 276 265 249 226 202 208 200 190 186 190 192 197 204 210 213 215 215 210 202 212
265 222 228 317 304 262 284 277 253 268 269 262 275 268 262 269 272 276 288 291 294 290 274 256 237 207 176 149 134 129 136 139 149 157 161 165 181 190 196 199 204 205 216 227
249 124 202 261 279 281 276 281 292 273 264 263 263 261 262 264 268 274 277 273 268 256 202 164 150 148 144 136 130 125 132 135 143 153 161 167 180 189 192 202 215 222 226 230
197 231 219 251 233 237 286 300 315 303 273 264 261 259 262 263 258 251 256 255 242 214 182 156 146 146 141 142 145 145 133 132 149 162 166 168 173 180 191 203 209 215 219 228